ECMWFFLT1_250_spd_054.txt.gz
Wind_Speed
34 34 35 37 40 41 43 45 47 49 51 53 56 59 62 65 69 73 76 79 82 86 90 94 98 103 107 112 116 120 123 127 130 133 136 139 142 146 149 152 155 156 156 158 160 159 158 158 158 158 157 157 158 158 159 160 161 161 162 162 163 164 166
35 34 33 34 37 39 41 43 44 47 49 51 53 55 57 60 64 68 71 75 78 81 84 88 92 96 100 105 109 113 116 120 124 127 130 133 135 138 142 146 149 152 154 156 159 160 159 159 159 158 158 158 158 159 160 161 161 161 162 162 162 162 162
35 35 34 33 34 36 38 40 42 44 46 48 50 52 54 56 59 62 66 70 73 76 80 84 88 91 94 98 103 108 112 115 119 122 125 127 130 133 135 139 142 146 149 152 156 159 160 159 159 159 158 158 159 160 161 161 161 162 162 162 162 161 161
36 36 36 35 34 34 36 38 40 41 43 45 47 49 51 53 55 58 61 65 68 72 76 80 84 88 91 94 98 102 107 110 114 117 119 122 125 127 130 133 135 138 141 145 150 155 157 159 159 159 159 160 160 161 161 162 162 162 162 162 162 162 161
35 35 36 36 35 34 34 36 38 39 41 43 45 47 48 50 52 55 57 61 64 67 71 76 80 84 87 90 93 97 100 103 107 111 114 117 119 122 125 127 129 131 133 137 141 147 152 156 158 159 159 160 161 162 162 162 162 162 162 162 162 162 161
34 35 35 35 36 35 34 34 36 38 39 40 42 44 46 48 50 52 54 57 60 64 66 70 74 78 82 85 88 91 94 97 100 104 108 111 114 117 119 121 123 125 126 129 133 138 144 149 154 157 158 160 161 162 162 162 162 162 162 162 162 162 162
33 33 34 34 35 35 34 34 34 36 37 39 39 41 43 45 47 49 51 53 56 60 63 65 68 72 76 80 83 85 88 91 94 98 101 105 108 112 114 116 118 119 121 123 126 131 136 142 147 152 154 157 160 161 162 162 162 162 162 162 162 162 163
33 33 33 33 34 34 35 34 33 34 36 37 38 39 40 42 44 46 48 50 52 56 59 62 64 67 71 75 78 80 83 86 89 93 95 98 101 104 107 110 113 115 116 118 121 124 129 135 140 145 148 152 156 159 159 160 161 161 161 162 162 162 163
34 33 32 33 33 33 34 34 33 33 34 35 37 37 38 39 41 43 45 47 49 52 55 58 60 62 65 69 72 75 78 81 84 88 90 92 95 97 100 103 107 110 112 114 116 119 123 128 133 138 142 146 150 153 155 157 159 160 160 161 162 162 163
36 34 33 32 32 33 33 34 34 33 33 33 34 36 36 37 38 40 42 44 45 48 50 53 56 58 61 64 67 70 73 77 80 83 86 88 90 93 95 97 100 103 107 110 112 115 118 122 127 132 136 139 143 147 150 153 156 158 159 160 162 162 163
36 35 33 32 32 32 32 33 33 33 33 33 33 34 35 36 36 38 39 41 43 44 46 49 52 54 57 59 62 66 69 72 75 78 81 84 87 89 91 93 95 97 100 103 107 111 114 117 121 125 130 134 137 140 143 146 150 152 155 157 160 161 161
37 35 34 33 32 31 31 31 32 33 33 33 33 32 33 34 35 36 37 39 40 42 44 46 48 50 53 55 58 62 65 68 71 73 76 79 82 85 88 90 91 93 95 97 101 105 109 113 117 121 125 129 132 135 138 141 143 145 148 152 155 157 158
38 36 34 33 33 32 31 30 31 32 32 33 34 33 33 33 33 34 36 37 38 40 42 43 45 47 49 51 54 58 61 64 67 70 72 75 78 81 84 86 88 89 91 92 95 98 102 107 112 116 120 123 126 130 133 136 138 139 141 144 147 150 152
38 37 35 33 33 33 32 30 29 30 31 32 33 34 33 33 33 33 34 35 36 38 39 41 43 44 46 48 51 53 56 60 63 66 69 71 73 76 79 82 85 87 88 89 91 93 97 100 105 110 115 119 122 124 127 130 132 134 135 137 139 142 146
39 37 35 33 32 32 33 32 30 29 29 30 31 32 33 34 34 34 34 34 35 36 37 39 41 42 43 45 47 49 52 56 59 62 65 67 70 72 74 77 80 83 85 87 88 90 92 95 98 103 108 112 116 118 121 123 126 128 130 132 133 135 139
39 37 36 34 32 31 32 32 31 30 29 29 29 30 32 33 34 34 34 34 34 35 36 37 39 40 41 43 44 46 49 52 55 58 61 63 66 68 70 73 75 77 80 83 85 87 89 90 92 96 100 104 108 112 115 117 120 122 124 126 127 129 132
40 38 36 35 32 30 30 32 32 31 30 29 28 29 30 32 33 34 34 34 34 34 34 36 37 39 40 41 42 43 46 48 51 54 56 59 61 64 67 69 70 72 75 78 81 84 85 87 88 91 94 97 101 104 108 111 113 115 117 120 122 124 127
42 40 38 36 33 31 30 30 31 31 31 30 29 28 28 30 32 33 33 34 34 34 34 35 36 37 38 39 40 42 44 46 48 50 52 54 57 60 62 64 65 67 71 74 77 80 82 84 86 88 90 92 94 98 101 104 107 110 112 114 116 119 122
42 41 39 37 35 32 30 29 30 30 30 30 29 28 28 28 30 32 33 33 33 34 34 34 35 36 37 38 39 41 42 44 46 47 48 51 53 56 57 59 61 65 68 70 73 76 79 81 83 84 86 88 89 92 95 98 101 104 107 109 111 114 117
42 41 39 38 37 34 31 29 29 29 29 29 29 29 28 27 28 30 31 33 33 33 34 34 35 35 35 36 38 39 41 42 44 45 46 48 50 51 53 55 58 62 65 68 70 73 76 78 80 81 83 85 86 88 90 93 96 99 101 103 106 109 111
43 41 39 38 37 36 33 30 29 28 28 28 29 29 28 27 27 27 29 31 33 33 33 33 34 34 35 35 37 38 39 40 42 43 44 45 47 48 49 52 56 60 62 65 68 70 72 74 76 78 80 82 83 85 87 89 92 94 96 99 101 103 106
43 41 40 38 37 37 35 33 30 29 28 28 28 28 27 27 27 26 27 28 30 32 33 33 33 33 34 35 36 37 38 39 40 41 42 43 45 46 47 50 53 56 60 62 65 66 69 71 73 75 77 79 80 82 83 85 87 88 90 93 96 98 100
43 42 40 38 37 37 36 35 32 29 28 28 28 27 27 27 26 26 26 27 28 30 32 33 33 33 33 34 34 35 36 37 38 39 40 41 44 45 47 48 50 53 56 59 61 63 66 68 70 72 73 75 77 78 79 80 81 83 85 87 91 94 96
43 42 40 39 37 36 36 35 34 31 29 27 27 27 26 26 26 26 26 26 27 28 29 31 32 32 32 32 33 34 35 36 37 38 39 40 42 44 46 47 49 51 54 56 58 60 63 65 67 68 70 72 74 74 75 76 78 80 82 85 87 90 92
42 41 40 39 37 36 35 35 34 33 30 28 27 26 26 25 25 25 25 26 26 26 27 29 31 31 31 31 32 33 34 35 36 37 37 38 40 42 44 46 47 49 51 53 55 57 59 61 63 65 67 69 70 71 73 76 78 79 81 82 84 86 88
42 41 40 39 38 37 36 35 34 33 31 30 28 27 26 25 24 25 25 25 26 26 26 27 29 30 30 31 31 31 32 33 34 35 36 37 38 40 42 44 45 47 49 51 52 54 55 57 58 61 63 65 67 70 73 75 76 77 78 80 82 83 86
42 41 40 39 38 37 37 36 35 33 31 30 29 28 27 25 24 24 25 25 25 26 26 27 27 28 29 30 30 30 31 32 33 34 35 36 37 38 40 42 44 45 47 48 49 51 53 54 55 57 59 62 65 68 70 71 73 75 76 78 80 82 84
42 41 40 39 38 37 36 36 36 35 33 31 28 28 27 26 25 24 24 25 25 25 26 26 26 27 27 29 30 30 30 30 31 32 34 35 36 37 38 40 42 44 45 46 47 48 49 51 53 55 57 59 61 64 66 68 70 72 74 76 78 79 81
42 41 41 40 38 37 35 34 35 36 35 33 30 27 26 26 26 25 24 24 24 25 25 25 26 27 27 27 29 29 29 30 30 31 32 33 35 35 37 38 40 42 43 45 46 47 47 49 51 53 55 56 58 61 63 64 67 69 71 72 74 76 78
42 41 41 40 39 38 36 34 33 33 34 35 33 30 27 26 25 25 24 24 24 24 25 25 26 27 27 27 28 28 29 29 29 30 31 32 33 34 36 37 38 40 42 43 45 46 46 48 49 51 52 54 57 59 60 61 64 66 68 70 72 74 76
42 41 41 40 39 39 37 35 33 31 32 32 33 33 30 28 26 25 24 24 24 24 24 25 25 26 27 27 28 28 28 29 29 29 30 31 32 33 34 36 37 38 40 41 43 44 45 47 48 49 51 52 55 57 58 59 61 63 65 67 69 71 73
41 41 41 40 39 39 38 37 35 32 31 30 31 31 31 30 28 27 25 24 24 24 24 24 25 26 26 27 28 28 28 28 29 29 29 30 31 32 33 35 36 37 38 40 41 42 44 45 47 48 49 51 53 54 56 58 60 62 63 65 67 68 70
41 41 41 40 39 39 38 38 36 34 31 30 30 30 30 29 28 28 26 24 23 24 24 24 24 25 26 26 27 28 28 29 29 29 29 29 30 31 32 33 34 36 37 38 39 41 42 43 45 46 48 49 51 52 54 55 58 60 62 64 65 67 68
42 41 41 41 40 39 39 38 37 35 33 31 29 30 30 30 28 28 27 26 24 23 23 24 24 24 25 26 26 27 28 29 29 29 29 29 30 30 31 32 33 34 36 37 38 39 40 41 43 44 46 47 49 50 52 54 55 57 60 62 63 65 66
42 42 41 41 40 40 39 39 38 37 36 33 30 29 29 30 29 28 28 27 25 24 23 24 24 24 24 25 26 26 27 28 29 29 29 29 30 30 30 31 32 33 34 35 37 38 39 40 41 43 44 45 46 48 50 52 53 55 56 58 60 62 63
41 41 41 41 40 40 40 39 39 39 38 37 34 31 29 29 30 30 29 28 26 25 24 23 24 24 25 25 25 26 26 27 28 29 30 30 29 30 30 30 31 32 32 34 35 37 38 39 40 41 42 43 44 46 48 50 52 53 54 55 56 58 59

ECMWFFLT1_250_spd_057.txt.gz
Wind_Speed
41 39 38 37 37 38 37 36 37 39 41 44 47 50 52 55 58 62 66 69 72 76 79 83 88 93 98 103 108 113 118 122 126 131 134 138 143 147 151 154 157 159 162 165 167 168 168 168 169 169 168 167 166 166 166 165 165 164 164 164 165 167 168
42 40 39 38 37 37 37 37 36 37 39 41 44 47 50 52 55 58 62 65 69 72 75 79 83 87 92 97 102 107 112 117 121 126 130 134 138 142 146 150 153 155 158 161 164 167 168 169 169 169 169 168 167 167 166 166 165 165 164 164 164 165 166
43 41 39 38 37 37 37 37 37 37 37 39 41 44 47 50 52 55 58 62 65 69 72 75 78 82 86 91 96 101 106 112 117 121 125 129 133 137 141 145 148 151 153 156 160 163 165 168 169 169 169 169 168 168 167 166 165 165 165 165 165 164 165
44 42 40 39 37 36 36 37 37 37 37 37 39 42 45 47 50 52 55 58 62 65 68 71 74 77 80 85 91 96 100 105 111 116 120 124 128 132 136 140 143 146 149 152 155 159 162 164 166 168 168 169 169 169 168 168 166 166 166 165 165 165 165
44 43 41 40 38 36 36 36 37 37 37 37 37 39 42 44 47 50 52 55 58 62 65 68 71 73 76 80 85 90 95 99 103 109 114 119 123 127 131 134 138 141 145 148 151 154 158 161 164 165 167 168 168 169 169 169 168 167 166 166 165 165 165
43 43 42 41 40 38 35 36 36 36 37 37 37 38 40 42 44 47 50 53 55 58 61 65 68 70 73 76 80 84 89 93 97 102 107 113 118 123 126 130 133 137 140 144 147 150 154 158 161 163 164 166 167 167 168 169 169 169 168 167 166 165 166
42 42 42 42 41 39 37 35 36 36 36 37 36 36 38 40 42 44 47 50 53 55 58 61 64 67 70 73 76 79 83 88 92 96 101 106 111 116 121 125 128 131 134 138 142 146 150 153 156 159 161 163 165 165 165 166 167 168 168 168 167 166 166
42 41 41 41 42 41 38 36 35 36 36 36 37 36 36 38 41 42 44 47 50 53 55 58 61 64 67 70 72 75 79 83 86 90 95 99 103 107 112 117 122 126 129 132 135 140 144 148 151 154 157 159 161 162 163 163 164 165 166 167 168 167 167
43 41 40 40 41 41 40 37 36 36 35 35 37 37 35 36 38 41 43 44 47 50 53 55 58 60 63 66 69 72 75 78 82 85 89 93 97 101 105 109 113 118 123 127 130 133 137 141 145 148 152 155 157 158 159 160 162 163 164 166 167 167 167
44 41 39 39 39 40 40 38 36 36 36 35 35 37 37 35 35 38 41 43 45 47 50 53 55 58 60 63 65 68 71 74 78 81 84 88 91 95 99 103 106 110 114 119 123 127 131 134 138 142 146 150 152 154 154 156 158 158 159 162 164 165 166
44 42 40 38 38 39 40 39 37 36 37 36 34 34 36 36 35 35 38 41 43 45 47 50 53 56 58 60 62 64 67 71 74 77 80 82 85 89 93 96 100 104 107 110 114 118 122 127 131 136 140 144 147 149 150 150 151 152 152 155 158 161 162
45 43 41 39 38 38 38 38 37 36 37 37 35 33 34 36 36 35 35 38 41 43 45 47 50 53 55 57 59 61 64 66 69 72 75 78 80 83 86 90 93 97 100 103 106 109 113 117 123 128 133 137 140 143 145 145 145 145 146 148 151 153 155
45 44 41 39 37 38 38 38 37 36 37 37 36 34 33 34 36 37 35 35 38 41 43 45 47 50 53 55 57 59 61 63 66 68 71 74 76 79 81 84 87 90 93 96 99 103 106 110 114 119 124 128 132 136 138 140 140 141 141 142 144 146 148
45 44 42 40 37 37 38 37 36 36 37 37 36 34 33 33 35 37 37 35 36 38 41 43 44 47 49 52 54 55 57 59 62 65 68 70 73 75 77 79 82 85 87 89 92 96 101 104 107 111 115 119 123 127 130 133 135 136 137 138 140 140 142
45 45 43 41 38 36 37 37 36 36 37 38 37 35 33 32 33 35 36 36 36 36 38 40 42 44 46 49 51 52 54 56 58 61 64 67 69 71 73 75 78 80 82 84 87 91 95 98 102 105 109 111 114 118 122 126 129 130 132 134 135 136 138
45 45 44 41 39 36 36 36 36 35 36 37 38 37 34 31 32 34 35 36 36 36 36 38 40 41 43 45 47 49 51 53 55 57 60 63 65 67 69 72 74 75 77 80 83 87 90 92 95 99 103 106 108 112 115 118 121 123 126 128 131 132 134
44 45 44 42 39 37 35 36 35 34 34 36 37 38 36 33 32 32 34 35 36 37 36 37 38 39 40 42 45 47 49 50 52 54 56 58 60 63 66 68 69 70 73 76 79 82 86 88 90 93 96 100 103 106 109 111 113 116 119 122 125 128 130
44 44 44 42 40 37 35 35 35 34 33 34 36 37 37 35 33 32 33 34 35 36 36 37 37 38 38 40 42 45 47 48 49 51 52 53 56 59 62 63 64 67 70 73 75 78 81 83 85 87 91 94 97 100 103 106 108 111 113 115 118 121 125
43 44 44 42 41 38 35 34 34 34 33 33 34 36 37 36 34 33 33 33 34 35 35 36 37 37 38 38 40 43 45 46 47 48 48 50 53 55 58 59 61 64 67 69 72 75 77 79 81 83 86 89 92 94 97 101 104 107 108 109 111 114 118
43 44 44 43 41 39 36 34 34 34 33 32 33 34 35 36 35 34 33 33 34 34 34 35 36 37 37 38 38 40 42 44 46 46 46 47 50 52 53 56 59 61 63 65 68 71 73 76 77 79 82 85 87 89 92 95 99 101 102 104 106 108 111
43 43 44 44 42 39 37 35 33 33 33 32 32 33 34 35 35 34 33 33 34 34 33 34 35 36 37 37 38 39 40 41 43 45 45 45 47 48 50 53 56 58 60 62 65 67 69 72 74 76 78 81 83 85 88 90 93 94 96 98 101 103 105
43 42 43 44 43 40 38 36 34 32 32 32 32 32 33 34 34 34 33 33 34 34 34 33 33 34 35 36 37 38 39 40 41 43 43 44 45 47 48 51 53 54 57 60 62 63 66 68 70 72 74 77 79 81 83 85 87 89 90 92 95 97 100
42 42 42 43 42 41 39 37 35 33 32 31 31 31 32 33 33 33 33 33 33 34 34 33 33 33 34 35 36 38 38 39 39 41 42 43 44 45 47 48 50 52 54 57 59 61 63 65 67 69 71 73 75 76 78 80 82 84 85 87 90 92 94
42 41 41 41 42 41 39 37 36 34 32 31 31 31 31 32 32 33 33 33 33 34 34 33 33 33 33 33 34 36 37 38 38 39 40 41 42 44 45 46 48 49 52 55 57 59 60 62 63 65 67 69 71 72 73 75 78 80 82 85 87 89 91
42 41 41 40 41 40 39 37 36 34 32 31 31 31 31 31 31 32 32 32 32 33 33 33 33 32 32 32 32 34 36 37 38 38 39 40 41 43 44 45 46 48 50 52 54 55 57 58 59 61 63 65 67 68 70 73 76 78 80 82 85 87 89
42 41 40 40 40 40 39 37 36 34 33 31 30 30 30 30 30 31 31 32 32 32 32 33 33 32 32 31 32 32 34 35 37 37 37 38 40 41 42 44 45 46 48 50 52 53 54 55 55 57 59 61 63 66 69 71 73 75 76 78 80 83 85
42 41 40 39 39 39 39 38 36 34 33 31 30 30 30 30 30 30 30 30 31 31 31 32 32 32 32 31 31 31 33 34 35 36 37 37 38 39 41 42 44 45 47 48 50 51 52 52 53 54 56 58 60 63 65 67 69 71 73 74 76 78 81
42 40 39 38 38 38 38 38 37 35 33 31 30 29 29 29 30 29 29 29 29 30 31 31 31 31 31 31 30 30 31 33 34 35 35 36 37 38 39 40 42 44 45 47 48 49 50 50 51 52 53 55 57 59 61 63 65 67 69 71 73 75 77
42 40 39 38 38 37 37 37 37 36 34 32 31 30 28 28 28 29 28 28 28 29 30 31 31 31 31 31 30 29 30 31 33 34 34 35 35 36 37 39 40 42 43 45 46 47 48 49 50 50 51 52 55 57 58 60 62 64 66 68 70 72 74
42 41 39 38 37 37 36 36 36 36 35 33 32 31 30 28 27 27 27 27 27 27 28 29 30 30 30 30 30 30 29 30 31 32 33 34 34 35 36 37 38 40 41 43 44 45 46 47 48 48 49 50 52 54 55 57 60 62 63 64 67 69 71
41 41 39 38 37 37 37 36 35 35 34 34 33 32 31 30 29 27 27 27 26 26 26 28 29 29 29 29 30 30 30 29 30 31 32 33 33 34 34 36 37 38 39 41 42 44 45 46 47 47 47 48 50 51 52 55 57 59 60 62 64 66 68
40 40 39 38 37 36 36 36 35 34 33 33 32 32 32 31 30 29 28 28 27 26 25 26 27 28 29 29 29 29 29 29 29 29 30 31 32 33 33 34 36 37 38 39 40 41 43 44 45 46 46 47 48 49 50 52 54 56 58 60 62 64 66
40 39 38 38 38 37 36 36 36 35 33 32 31 31 31 31 31 29 28 28 28 28 26 26 26 26 27 28 29 29 29 29 28 28 29 30 31 32 33 33 34 36 37 38 39 40 41 42 43 44 45 45 46 47 48 50 52 54 55 57 59 61 63
40 39 38 37 37 37 37 36 36 35 34 33 31 31 30 30 30 30 28 26 26 27 27 26 26 26 26 27 28 29 29 29 28 28 28 28 30 31 32 33 33 34 35 37 38 39 39 40 41 42 43 44 45 46 47 48 50 51 53 55 56 58 60
41 39 38 37 36 37 37 37 36 35 34 33 32 31 30 30 29 29 28 26 25 25 26 26 26 25 25 26 27 28 29 29 28 28 28 28 29 30 31 32 33 33 34 35 36 38 38 39 40 41 41 42 43 44 45 47 48 49 51 52 54 56 57
41 39 38 37 36 36 36 36 36 35 35 34 33 32 31 30 29 29 29 28 26 24 24 24 25 25 25 25 26 27 28 28 28 28 28 28 28 29 30 31 32 33 33 34 35 36 37 38 39 40 40 41 42 43 44 45 46 47 49 51 52 54 55

ECMWFFLT1_250_spd_060.txt.gz
Wind_Speed
51 48 46 45 43 41 40 41 40 39 39 40 41 41 43 46 49 51 53 56 58 62 65 69 72 77 81 86 91 96 101 106 111 116 121 125 129 132 136 139 142 146 151 156 160 164 166 168 169 170 170 171 171 171 171 171 171 171 170 169 170 171 172
52 50 47 46 44 42 41 41 41 40 39 39 40 41 41 43 46 49 52 54 56 59 62 65 68 72 76 81 85 91 96 100 105 110 115 120 124 128 132 135 138 141 145 150 155 159 163 166 169 170 172 172 173 174 173 173 173 173 173 172 171 170 170
53 51 49 47 45 43 42 41 41 41 40 39 38 40 41 42 43 46 49 52 54 56 59 62 64 67 72 76 80 84 89 94 99 103 108 113 119 124 128 131 134 137 141 145 149 153 158 162 166 169 171 173 173 174 175 175 175 175 174 174 172 171 169
53 51 49 47 46 44 42 41 41 41 41 40 38 38 40 42 42 43 46 49 51 54 56 59 61 64 68 72 75 79 83 88 93 97 101 106 111 117 123 128 131 134 137 141 145 149 153 156 161 165 168 171 173 174 175 176 177 176 176 175 174 173 171
53 51 50 48 46 44 43 42 41 41 41 41 40 38 39 41 42 42 44 46 48 51 54 56 59 61 64 68 71 75 78 82 87 91 96 100 105 110 116 122 127 130 133 137 141 145 148 151 155 159 163 167 170 172 174 175 176 177 177 177 176 175 173
53 51 50 48 47 45 44 42 41 41 40 41 41 39 37 39 42 42 43 44 46 48 50 53 56 59 61 64 67 71 74 78 81 85 90 95 99 104 109 115 121 126 130 133 136 141 145 147 150 153 157 161 164 168 171 173 175 176 177 177 177 177 176
53 51 49 48 47 45 44 43 42 41 41 41 42 41 38 38 40 41 42 43 44 46 48 50 53 56 59 61 64 67 71 74 77 80 84 89 94 98 103 109 115 120 125 129 132 136 141 144 146 148 151 155 158 162 165 169 172 174 176 177 177 178 177
53 51 49 47 47 45 44 44 43 41 41 41 41 42 39 37 38 41 41 42 44 45 46 47 50 53 56 58 61 64 67 70 73 76 80 83 88 93 98 103 108 113 119 124 129 133 137 141 143 145 147 150 153 156 160 164 168 171 174 175 176 177 178
53 50 49 47 46 45 44 44 43 42 41 41 41 42 41 38 37 39 41 42 43 44 45 46 47 50 53 56 58 61 64 67 70 73 76 79 83 87 92 97 102 107 112 118 124 129 133 137 140 143 145 147 150 152 155 159 162 166 169 172 174 175 176
53 51 48 47 46 45 44 44 44 42 41 41 42 41 41 40 38 38 40 41 42 43 44 45 46 48 50 53 56 58 61 64 67 70 72 75 79 83 87 92 96 101 106 111 116 122 128 133 136 139 142 144 146 148 150 153 156 159 162 166 169 172 173
53 50 48 47 45 44 44 44 44 43 41 41 42 42 41 40 39 39 39 40 41 42 43 44 45 46 48 50 53 56 58 61 64 67 69 72 75 79 83 87 91 96 100 105 110 116 121 127 132 135 138 140 142 144 146 148 149 152 155 159 162 165 167
53 50 48 47 45 43 43 43 44 43 41 40 42 43 42 40 38 39 39 40 40 40 41 43 44 45 46 48 50 53 55 58 62 65 67 70 73 76 79 83 87 91 95 100 105 110 115 120 126 131 135 137 139 141 142 143 144 146 148 151 154 157 159
53 50 48 46 44 42 42 43 44 43 41 40 41 42 43 41 39 38 38 40 41 40 40 42 43 44 45 47 48 50 53 56 59 62 65 67 70 73 76 79 83 86 90 94 98 103 109 114 119 125 129 133 135 137 138 139 140 141 143 145 147 149 151
52 50 49 47 45 42 41 42 43 42 40 40 41 42 43 42 40 38 37 38 41 41 39 39 42 43 44 45 47 48 51 53 56 59 62 65 68 70 73 76 79 82 85 89 93 97 102 107 113 118 122 126 130 132 134 136 137 138 139 140 141 143 145
52 50 49 48 46 43 40 41 43 42 40 39 40 42 43 42 41 40 38 37 38 41 40 39 40 41 42 43 45 47 49 52 54 56 59 62 65 67 70 73 76 79 82 85 88 93 97 102 106 111 115 119 123 126 129 132 134 135 135 136 137 139 141
51 49 48 47 46 44 41 41 42 42 39 39 40 41 42 42 41 41 39 37 37 39 40 39 39 40 41 42 43 45 47 50 52 54 56 59 62 64 67 70 72 75 78 81 85 89 93 97 101 105 109 113 116 119 123 126 128 130 132 133 135 136 138
50 48 47 47 46 44 41 40 42 42 40 38 39 40 41 42 41 41 40 38 37 37 38 39 39 39 40 41 42 44 45 47 50 52 54 56 59 62 65 67 68 71 75 78 82 85 89 92 96 99 103 106 109 113 116 119 122 125 128 130 131 133 135
50 47 46 46 45 43 41 40 41 42 40 38 39 40 40 41 41 41 41 39 38 37 37 37 38 39 39 39 40 42 44 45 47 50 52 54 56 59 62 63 64 68 71 75 78 81 85 88 91 94 97 100 104 106 110 113 116 120 123 125 127 129 131
49 47 45 45 44 43 41 40 41 42 41 39 38 39 40 40 40 41 41 40 38 38 37 36 37 38 38 39 39 41 42 44 45 47 49 51 54 57 59 60 62 66 69 72 74 77 80 83 86 89 92 95 98 101 104 107 112 115 118 119 121 124 126
49 46 45 44 43 42 41 40 40 41 41 39 38 38 39 39 40 40 41 40 39 38 37 36 36 36 38 38 38 39 41 43 44 45 46 48 51 54 56 58 62 65 67 68 70 73 75 78 81 83 87 90 93 96 99 103 107 111 112 113 116 118 121
48 46 44 44 43 41 41 40 39 40 41 39 38 38 38 39 39 40 40 40 39 39 38 36 36 36 37 37 37 37 39 41 43 43 44 45 48 51 53 56 60 62 63 65 67 70 71 73 75 78 81 85 88 92 94 98 102 105 106 107 110 112 115
47 45 43 43 43 41 41 40 39 39 39 39 38 37 37 38 38 39 39 39 39 39 38 37 36 36 36 37 37 37 38 40 42 42 43 43 45 48 51 54 57 58 59 62 64 66 68 70 71 73 76 79 83 86 89 92 95 98 99 101 104 106 108
45 44 43 42 42 42 41 40 39 39 38 39 38 37 37 37 37 38 38 38 38 38 38 37 37 36 36 36 36 36 37 39 40 41 41 41 43 45 49 52 54 55 56 59 61 64 66 67 68 70 71 74 78 80 83 86 89 92 93 95 98 101 103
44 43 42 41 41 41 41 40 39 39 38 38 38 37 36 36 37 37 37 38 38 38 38 37 37 36 36 36 35 36 36 38 39 40 40 40 41 42 46 49 51 52 53 56 58 61 63 64 65 66 68 70 72 75 77 81 85 87 89 91 94 96 99
43 42 41 40 41 41 41 40 39 38 38 38 37 37 36 36 36 36 36 37 37 37 37 37 36 36 36 36 35 35 35 36 38 39 39 40 40 41 43 46 49 50 51 53 55 57 59 61 62 63 65 66 68 70 73 77 81 84 86 88 90 91 94
42 41 40 40 40 40 40 41 40 38 38 38 37 36 35 35 35 35 35 36 36 36 36 37 36 36 36 36 35 34 35 35 37 38 38 39 39 39 41 43 46 48 49 50 52 54 56 58 59 61 62 63 65 67 70 73 76 78 80 82 84 86 88
41 40 39 39 40 40 40 40 40 39 38 37 37 36 35 35 35 34 34 34 35 35 36 36 36 35 35 35 35 34 34 35 36 37 38 38 39 39 39 41 43 45 47 48 50 51 53 54 56 59 60 61 63 64 66 68 71 73 75 77 78 80 83
40 39 38 38 39 39 39 40 40 39 38 37 37 36 35 34 34 34 33 34 34 34 35 35 35 35 35 35 35 34 34 34 35 36 37 38 38 38 39 39 41 43 45 46 48 49 50 52 53 56 57 59 60 62 63 64 66 68 71 72 73 75 78
39 38 37 38 39 39 39 40 40 39 38 37 37 36 35 34 34 34 33 33 33 33 34 34 35 35 34 34 34 34 34 34 34 35 36 37 37 38 38 38 39 41 43 45 46 47 49 50 51 52 54 56 58 59 60 61 62 65 66 68 69 71 74
38 38 37 37 38 39 39 39 40 39 38 37 36 35 35 34 34 34 33 33 32 32 33 33 34 34 34 33 33 34 34 34 34 34 35 36 36 37 37 37 38 39 41 43 44 46 47 48 49 50 52 54 55 56 57 58 60 61 63 64 66 68 70
37 37 37 36 37 38 38 38 39 39 38 37 36 35 34 34 34 34 33 33 32 32 32 32 32 33 33 33 32 33 33 33 33 34 34 35 35 36 36 36 36 37 39 41 43 44 46 47 48 48 49 51 52 53 54 56 57 59 60 62 63 65 67
37 37 37 36 37 37 38 38 38 38 38 37 37 36 35 34 33 34 33 33 32 31 31 31 31 32 33 33 32 32 32 33 33 33 33 34 35 35 36 36 36 36 37 39 41 43 44 45 46 47 48 49 50 51 52 53 55 57 58 60 61 63 64
38 37 37 36 36 37 37 37 37 37 37 37 36 36 35 34 34 33 33 33 32 31 31 30 30 30 31 32 32 31 31 31 32 32 33 33 34 34 35 36 36 36 36 37 39 41 43 44 45 46 46 47 48 49 49 51 53 54 56 58 60 61 62
38 38 37 36 36 36 36 36 36 36 36 36 35 35 36 35 35 34 33 33 32 32 31 31 30 30 30 30 31 31 30 30 31 31 32 32 33 34 35 36 36 36 35 35 36 38 40 42 43 44 45 46 46 47 48 49 50 52 54 56 57 59 60
38 38 37 37 36 36 35 35 35 36 35 35 35 35 35 35 35 34 34 33 33 32 32 31 31 30 30 29 30 30 30 30 30 30 31 31 31 33 34 35 36 36 35 35 35 36 37 39 41 43 43 44 45 46 46 47 48 49 51 53 55 57 58
38 38 38 37 36 35 35 34 34 35 34 34 34 34 34 34 35 34 34 34 33 32 32 31 31 31 31 30 30 29 29 29 29 29 30 30 30 31 32 34 35 35 35 35 35 35 35 37 39 40 42 42 43 44 44 45 46 48 49 51 53 54 56

ECMWFFLT1_250_spd_066.txt.gz
Wind_Speed
80 77 75 72 69 67 64 63 61 61 64 64 58 56 56 55 55 55 55 55 54 53 53 54 54 56 60 64 67 69 71 75 78 82 85 89 94 99 104 109 114 119 124 127 130 134 137 140 143 148 153 157 160 163 166 168 168 167 167 167 167 169 171
78 76 74 71 68 66 64 63 62 61 64 64 58 55 56 55 55 55 55 55 54 53 53 54 54 55 58 62 66 68 70 73 77 80 84 87 91 96 100 105 110 115 119 123 126 130 134 137 141 144 147 151 155 158 163 166 167 167 167 167 167 167 169
77 75 73 70 68 66 64 63 62 61 64 64 58 55 56 55 55 56 55 55 54 53 53 54 54 54 56 61 64 66 68 72 75 79 82 85 88 93 97 101 106 111 115 119 121 125 129 134 138 142 143 145 149 152 156 161 164 166 167 168 167 167 168
77 74 72 70 68 66 64 62 61 61 64 63 57 55 55 54 55 56 55 55 54 53 53 55 54 53 55 59 62 64 67 70 74 77 80 84 87 90 94 98 102 107 111 115 117 120 124 128 134 139 141 142 144 147 150 154 159 162 165 167 168 168 168
76 73 71 70 68 66 63 61 60 61 64 61 56 54 55 54 55 56 55 54 54 53 53 55 54 53 54 58 60 62 65 68 72 76 79 82 85 89 92 95 99 103 107 111 114 117 120 123 128 133 138 140 141 143 145 148 152 155 159 163 167 169 169
75 72 70 69 67 65 62 60 59 61 63 60 54 53 54 54 55 56 55 54 53 52 53 55 55 53 54 57 58 60 63 66 70 74 77 80 83 87 90 93 96 100 104 108 111 114 117 120 123 128 134 138 140 141 142 143 146 149 153 158 162 167 169
74 71 70 68 66 64 61 59 59 60 61 57 53 53 54 54 54 56 55 54 53 52 53 55 55 53 53 56 58 59 61 64 67 71 75 78 81 84 88 92 94 97 101 104 108 111 114 117 120 124 129 133 137 140 141 142 143 145 148 152 157 162 167
71 70 69 67 65 62 60 59 58 59 59 55 51 52 53 53 54 55 55 53 52 52 53 54 55 54 53 55 57 58 60 62 65 68 72 76 79 82 85 89 93 96 98 102 105 109 112 115 118 121 125 129 133 137 140 141 142 143 145 148 151 156 162
68 68 67 65 63 61 59 58 58 58 56 53 50 51 53 53 54 55 54 53 52 52 52 53 54 54 54 54 56 58 58 60 63 66 69 73 77 80 83 86 90 93 96 99 102 106 109 113 116 118 121 125 129 134 137 139 140 142 143 145 147 150 155
65 66 66 63 61 59 58 57 57 56 54 51 49 50 52 53 54 54 53 52 52 51 52 52 53 54 54 54 55 57 58 58 61 64 67 69 74 78 81 84 87 90 94 97 99 103 106 110 113 115 118 121 124 129 134 137 138 140 141 143 145 147 149
62 63 63 61 60 58 57 57 56 55 52 49 48 50 52 53 54 54 52 52 51 51 51 51 52 54 54 54 55 56 57 58 59 62 65 67 71 75 79 82 84 87 91 94 97 99 103 106 109 112 115 118 120 123 129 133 136 138 140 142 144 145 146
59 61 61 59 58 57 56 56 55 53 50 47 47 50 52 53 53 53 52 51 51 50 50 50 52 53 54 54 54 55 56 57 58 59 62 66 69 73 76 79 81 85 88 91 94 96 99 102 105 108 111 114 116 119 123 128 132 135 137 140 142 144 146
57 58 58 57 56 55 55 55 54 52 49 46 47 49 51 52 52 51 51 51 51 49 49 50 51 53 53 54 54 54 55 56 57 58 60 64 67 71 73 76 78 82 85 88 91 94 96 99 102 105 107 110 113 115 118 122 126 130 133 136 139 142 145
55 56 56 55 55 55 55 54 52 50 48 46 47 49 50 51 51 50 51 51 50 48 48 49 51 52 53 53 54 54 53 54 56 58 59 61 65 68 71 73 76 78 82 86 89 91 94 96 99 101 104 106 109 112 114 117 121 125 129 132 135 139 142
54 54 53 54 54 54 54 53 51 49 46 45 47 48 49 50 50 50 50 50 49 48 47 49 51 52 52 53 53 53 52 53 54 56 58 60 62 65 68 71 74 76 79 83 86 89 91 94 96 98 101 103 105 108 110 113 116 120 124 128 132 135 139
52 51 51 52 53 53 53 52 50 48 45 45 47 47 48 49 49 49 49 49 48 47 47 48 50 51 52 52 52 52 52 52 53 55 57 59 59 61 65 69 71 74 77 80 83 86 89 92 94 96 98 101 103 105 107 109 112 116 120 124 129 133 137
51 50 50 51 51 51 51 51 49 47 45 45 46 46 47 48 48 48 48 47 47 47 47 48 49 50 51 51 51 51 51 51 51 53 56 57 57 59 62 66 69 72 75 77 79 82 85 89 91 93 95 98 100 102 104 106 109 112 116 120 124 129 135
49 49 49 49 49 50 50 50 48 46 45 45 46 45 46 47 47 48 47 47 46 46 46 47 48 49 50 50 50 50 50 49 50 52 54 55 56 57 59 62 65 69 72 74 76 79 82 85 88 90 92 94 97 99 102 104 106 108 111 115 119 124 130
48 48 48 48 48 49 49 48 47 45 44 45 45 45 45 46 46 47 47 46 45 45 46 47 47 48 49 49 49 50 49 48 49 51 53 53 54 56 57 58 60 65 69 72 74 76 78 81 84 86 89 91 93 96 98 101 103 105 108 111 115 119 123
46 46 46 46 47 47 47 47 45 44 44 45 44 44 44 45 46 46 45 44 44 45 46 47 46 47 48 48 49 49 48 47 48 50 51 51 53 54 54 54 57 62 66 69 71 73 75 77 80 82 85 87 89 92 95 97 99 101 104 107 110 114 117
45 45 45 45 46 46 46 45 44 43 44 44 43 43 44 45 45 44 43 43 43 45 46 46 45 46 46 47 48 48 46 46 47 49 50 50 51 52 51 52 55 59 63 66 69 70 71 74 77 79 81 83 85 87 90 93 95 98 100 103 106 109 113
44 44 44 45 45 44 44 44 43 43 43 43 42 42 43 44 43 42 42 42 43 44 45 45 45 45 45 46 47 46 45 45 46 47 48 48 48 49 50 51 53 56 59 63 66 68 69 71 73 76 78 80 81 83 85 87 91 94 97 100 103 106 109
43 43 44 44 43 43 42 42 42 42 42 41 41 41 43 43 42 41 41 42 42 43 44 44 44 44 44 45 45 45 44 44 45 46 46 46 46 47 48 49 51 53 57 60 63 65 67 69 69 71 74 76 77 79 81 84 88 91 94 97 100 103 106
42 42 43 42 41 41 41 41 41 42 41 40 40 41 42 42 41 40 40 40 41 42 43 43 43 44 44 44 44 43 42 43 45 45 45 44 45 45 46 47 49 52 55 58 60 63 65 65 66 67 70 72 74 77 80 82 85 88 90 93 96 98 101
40 41 41 40 40 40 40 40 40 40 40 39 40 40 41 40 39 39 39 40 41 42 42 42 43 43 43 43 43 41 41 42 43 44 44 43 43 44 45 46 47 50 53 55 57 60 61 62 63 64 66 68 72 76 78 80 81 83 85 88 90 93 96
39 39 39 38 38 39 39 39 38 39 39 39 39 39 39 39 38 37 38 39 40 40 40 41 42 43 42 42 42 40 39 40 42 43 44 43 42 42 43 44 45 48 51 53 54 56 58 58 59 61 63 66 70 73 75 76 77 79 81 83 86 89 92
37 37 37 37 37 38 37 37 37 38 38 38 38 37 37 37 36 36 38 39 39 39 40 41 42 42 42 41 41 39 38 39 40 42 42 42 41 41 42 42 43 46 48 50 51 52 54 55 56 59 62 65 68 69 70 72 74 76 77 79 82 85 88
36 36 36 35 36 36 36 36 36 37 37 37 36 36 36 36 36 36 37 38 38 38 39 40 40 41 41 41 40 38 38 38 39 41 41 41 41 41 41 41 42 43 46 48 49 49 51 52 54 57 60 62 64 66 67 69 70 72 73 75 78 81 84
35 35 34 34 34 35 35 35 35 36 35 35 34 34 35 35 35 35 36 36 37 38 39 39 39 40 40 40 39 38 37 37 38 39 40 41 41 40 40 40 40 41 43 45 46 47 48 50 52 55 58 59 61 63 64 66 68 69 70 72 74 77 79
33 33 32 33 34 34 35 35 34 33 33 33 33 34 34 34 34 34 34 35 36 37 38 38 38 39 39 38 38 37 37 37 37 38 39 40 40 40 39 39 39 40 40 42 44 45 47 48 51 53 55 56 58 59 62 64 65 66 67 69 70 73 74
31 31 32 32 33 34 34 33 32 31 31 32 33 33 33 33 33 33 33 34 35 36 37 37 38 38 38 37 37 37 36 36 37 38 39 39 40 40 39 38 38 38 39 40 41 43 45 47 49 51 52 54 55 57 59 61 63 63 65 66 67 68 70
31 31 31 32 33 33 32 31 31 30 31 32 32 32 32 32 33 33 33 34 35 35 35 36 37 37 37 37 36 36 36 36 36 37 38 39 39 39 39 38 37 37 37 38 39 41 43 45 47 49 50 51 53 55 57 59 60 61 62 63 64 65 66
30 31 31 32 32 31 31 30 30 30 31 31 31 31 31 32 32 32 33 34 34 34 34 35 36 36 36 36 36 35 35 35 36 36 37 38 39 39 38 38 37 37 37 37 37 38 40 42 44 46 48 49 51 53 55 57 58 59 60 61 62 62 63
30 31 31 31 31 30 30 30 30 30 30 30 30 31 31 31 31 32 33 33 33 33 34 34 35 35 35 35 35 35 35 35 36 36 37 37 38 38 38 37 37 37 36 36 36 37 38 40 42 44 45 47 49 51 53 55 56 58 58 59 59 59 60
30 31 31 30 30 30 30 30 29 29 29 30 30 30 31 31 31 32 33 33 32 32 33 33 34 34 34 35 35 35 35 36 36 36 36 37 37 37 37 37 37 36 36 36 35 36 37 38 40 41 42 44 46 48 51 53 55 56 57 57 57 57 58
29 30 30 30 30 30 30 30 29 29 29 29 30 30 30 31 31 32 32 32 32 32 32 33 33 34 34 35 35 35 35 35 35 35 36 36 36 37 37 37 36 36 36 35 35 35 36 37 38 39 40 41 43 45 48 51 53 54 55 55 55 55 56